Showing default

ORBCOMM FM 116, 41189

Orbit data source: Space-Track

ORBCOMM FM 116, 41189 is a payload satellite owned by Orbcomm (US) in LEO that was launched on Tue, 22 Dec 2015 UTC via an FALCON 9 launch vehicle from the Air Force Eastern Test Range (AFETR). Payloads include a variety of satellites, spacecraft, and rockets equipped with specific instruments for various scientific and technological missions. These include communications satellites like Starlink; space stations such as the ISS; scientific satellites like the Hubble; Earth observation satellites from companies like Planet Labs, Umbra, and HawkEye 360; GPS; miniature CubeSats for education and research; and military/defense satellites.

Loading next visibility...
ORBCOMM FM 116 details
Identifier
41189, 2015-081L
Orbit
LEO
Last TLE update7 hours ago
Origin
Flag of USOrbcomm (US / ORB)
ManufacturerSNC Louisville
MissionOperational Commercial Communications
Bus & MotorSN-100A, Unknown motor
Mass172 kg wet, 158 kg dry
Launch date (UTC)
2015-12-22 (9 years ago)
Launch vehicle
FALCON 9
Launch site
Air Force Eastern Test Range (AFETR)
Object type
Payload
Rocket body
Debris
Shape & HBRBox + 1 Pan + 1 Ant, 13 m
Radar Cross Section2.222 m², Medium (>0.1 m² and < 1m²)

Expand to show TLE details & history

TLE from 7 hours ago
0 ORBCOMM FM 116
1 41189U 15081L   24361.22266519  .00003378  00000-0  77041-3 0  9990
2 41189  47.0015 292.1634 0002466 327.9249  32.1486 14.57636569480416
Epoch: 2024-12-26T05:20Z
Definitive object data (Epoch: 2024-12-26T05:20:38.272Z)
Latitude-0.00001°
Longitude116.79877°
Altitude699.553 km
Speed7.508 km/s
True Right ascension19h 28m 39s
True Declination0° 00' 00"
Sunlit
Object was in daylight at TLE epoch
Visualization TLE readout
Latitude32.54096°
Longitude-100.89878°
Altitude703.956 km
Speed7.508 km/s
Apparent Right ascension02h 43m 21s
Apparent Declination-1° 52' 28"
Sunlit
Object is in full shadow
Visualization observer readout
Local Sidereal Time11:53:22
Azimuth303.555° NW
Elevation-35.89°
Doppler factor1
Orbital elements
Apogee altitude703.796 km
Perigee altitude700.304 km
Semi-major axis7,080.187 km
Eccentricity0.0002466
Inclination47.0015°
RAAN292.1634°
Arg. of periapsis327.9249°
True anomaly32.16364°
Mean anomaly32.1486°
Eccentric anomaly32.15612°
Mean motion3.64314 °/min
BSTAR0.00077041
Orbital period98.82 mins
Loading maneuver chart data...
Loading historical data...
Loading historical data...
Loading historical data...
Loading historical data...
Loading historical data...
Loading historical data...
Loading historical data...

ORBCOMM FM 116 Visibility forecast

Observer location: undefined°, undefined

Span
Click to sort rows by Start time (UTC) header in descending order
Start Az.
Max El. time (UTC)
Max El. Az.
Max El.
End time (UTC)
End Az.
8 mins2024-12-26 21:56:51.210Z201.662° SSW2024-12-26 22:00:51.210Z147.232° SSE28.301°2024-12-26 22:04:51.210Z80.952° E
8 mins2024-12-26 23:40:51.210Z256.024° W2024-12-26 23:44:51.210Z2.627° NNE42.124°2024-12-26 23:48:51.210Z58.268° ENE
7 mins2024-12-27 01:25:51.210Z301.288° NW2024-12-27 01:28:51.210Z2.134° NNE30.827°2024-12-27 01:32:51.210Z61.614° ENE
7 mins2024-12-27 03:09:51.210Z310.443° NW2024-12-27 03:12:51.210Z13.723° NNE36.588°2024-12-27 03:16:51.210Z87.531° E
8 mins2024-12-27 04:52:51.210Z289.676° WNW2024-12-27 04:56:51.210Z200.247° SSW40.277°2024-12-27 05:00:51.210Z137.73° SSE
|